Location: Abbey Hill
(34.0751°N, 84.0688°W)
Time: 06:06:58
(UTC+00:00)

Envisat - Pass Details

Date: 28 September 2021
Orbit: 764 x 766 km, 98.2° (Epoch: 23 October)

Event Time Altitude Azimuth Distance (km) Brightness Sun altitude
Rises 10:28:46 0° 15° (NNE) 3,234 6.5 -13.2°
Reaches altitude 10° 10:31:07 10° 19° (NNE) 2,304 5.8 -12.8°
Maximum altitude 10:36:09 65° 101° (E) 836 3.5 -11.7°
Drops below altitude 10° 10:41:10 10° 183° (S) 2,290 5.4 -10.7°
Sets 10:43:28 0° 186° (S) 3,212 6.1 -10.2°
